Preview of NWS' New Version of Forecast
This preview is not operational and should not be used for support decisions.

Regional Weather Roundup (RWR)

Issued by National Weather Service (NWS)

                            
000
ASUS44 KMEG 211700
RWRTN 
TENNESSEE HOURLY STATE WEATHER ROUNDUP
NATIONAL WEATHER SERVICE MEMPHIS TN
1200 PM CDT SUN JUL 21 2019

TNZ002-004-019-021-049-052-054-088>092-211800-
WEST TENNESSEE
  
CITY           SKY/WX    TMP DP  RH WIND       PRES   REMARKS
MEMPHIS INTL   FAIR      87  76  69 S7        30.00F HX  97           
NWS MEMPHIS      N/A     90 N/A N/A MISG        N/A                   
JACKSON        PTSUNNY   80  77  90 S6        30.03S                  
DYERSBURG      FAIR      86  79  79 VRB5      30.00F HX  99           
SOMERVILLE     MOSUNNY   84  77  79 S3        30.00F HX  94           
COVINGTON      PTSUNNY   86  79  79 SE3       29.99S HX  99           
UNION CITY     PTSUNNY   84  77  79 S8G14     29.97F HX  94           
BOLIVAR        CLOUDY    79  75  89 SE6       30.02S                  
PARIS          CLOUDY    84  75  74 SW7       30.00F HX  92           
HUNTINGDON     SUNNY     84  77  79 VRB6      30.00F HX  94           
LEXINGTON      MOSUNNY   82  73  74 S7        30.02F                  
SELMER         PTSUNNY   81  75  83 VRB3      30.04R                  
SAVANNAH       MOSUNNY   86  75  70 S9        30.03S HX  95           
$$

TNZ008-025-027-028-033-062-065-066-211800-
NORTH MIDDLE TENNESSEE
  
CITY           SKY/WX    TMP DP  RH WIND       PRES   REMARKS
NASHVILLE      CLOUDY    78  74  87 S7        30.04F                  
PORTLAND       CLOUDY    79  75  89 S12       30.03F                  
CLARKSVILLE    CLOUDY    84  76  76 SW8       30.00F HX  93           
LEBANON        CLOUDY    79  73  83 SW7       30.02F                  
SMYRNA         CLOUDY    78  74  87 S7        30.05F                  
MURFREESBORO   CLOUDY    79  73  83 S8        30.03F                  
COOKEVILLE     PTSUNNY   82  73  74 SW9G15    30.06F                  
LIVINGSTON     CLOUDY    79  72  78 SW6       30.07S                  
GALLATIN       CLOUDY    79  75  89 VRB3      30.06F                  
CROSSVILLE     PTSUNNY   77  69  76 W8        30.11F                  
ROCKWOOD       PTSUNNY   81  73  78 VRB7      30.09S                  
$$

TNZ061-075-076-078-094-096-097-211800-
SOUTH MIDDLE TENNESSEE
  
CITY           SKY/WX    TMP DP  RH WIND       PRES   REMARKS
LAWRENCEBURG   CLOUDY    79  75  89 SW5       30.06S                  
LEWISBURG      CLOUDY    79  73  83 VRB5      30.05F                  
FAYETTEVILLE   MOSUNNY   81  73  78 SW8       30.06F                  
TULLAHOMA      PTSUNNY   82  73  74 S6        30.06F                  
WINCHESTER     SUNNY     84  72  65 SW6       30.06F                  
MCMINNVILLE    CLOUDY    81  73  78 SW7       30.06F                  
COLUMBIA       CLOUDY    79  79 100 SW9       30.03F                  
SHELBYVILLE    CLOUDY    79  73  83 SW7       30.05F                  
$$

TNZ017-018-042-046-047-211800-
NORTHEAST TENNESSEE
  
CITY           SKY/WX    TMP DP  RH WIND       PRES   REMARKS
TRI CITIES     PTSUNNY   84  71  65 W7        30.08F                  
ELIZABETHTON   FAIR      84  73  70 VRB6      30.08F HX  91           
GREENEVILLE    SUNNY     77  73  88 CALM      30.09F                  
$$

TNZ012-013-036-069-073-074-211800-
CENTRAL EAST TENNESSEE
  
CITY           SKY/WX    TMP DP  RH WIND       PRES   REMARKS
KNOXVILLE      CLOUDY    86  70  58 SW9       30.06F HX  90           
OAK RIDGE      PTSUNNY   84  71  65 VRB6      30.07F                  
DOWNTOWN KNOXV MOSUNNY   86  73  66 SW8G14    30.06S HX  93           
GATLINBURG     SUNNY     86  73  66 VRB7      30.05F HX  93           
MORRISTOWN     MOSUNNY   82  73  74 W8G15     30.07F                  
JACKSBORO      MOSUNNY   82  75  78 S3        30.10S                  
$$

TNZ083-085-099-211800-
SOUTHEAST TENNESSEE
  
CITY           SKY/WX    TMP DP  RH WIND       PRES   REMARKS
CHATTANOOGA    FAIR      85  70  60 SW7       30.07F                  
DAYTON         PTSUNNY   84  73  70 S8        30.06S HX  91           
$$

SKY/WX REPORTED AS FAIR MEANS FEW OR NO CLOUDS BELOW
12 THOUSAND FEET.